Time,TemperatureF,DewpointF,PressureIn,WindDirection,WindDirectionDegrees,WindSpeedMPH,WindSpeedGustMPH,Humidity,HourlyPrecipIn,Conditions,Clouds,dailyrainin,SoftwareType,DateUTC
2013-01-08 00:01:00,22.0,3.0,30.04,NE,45,3.0,5.0,43,0.00,,,-99.99,,2013-01-08 07:01:00,
2013-01-08 00:11:00,22.0,3.0,30.04,NE,45,3.0,5.0,43,0.00,,,-99.99,,2013-01-08 07:11:00,
2013-01-08 00:22:00,20.0,4.0,30.05,North,360,2.0,4.0,48,0.00,,,-99.99,,2013-01-08 07:22:00,
2013-01-08 00:32:00,20.0,4.0,30.04,East,90,2.0,4.0,48,0.00,,,-99.99,,2013-01-08 07:32:00,
2013-01-08 00:42:00,20.0,4.0,30.04,East,90,2.0,4.0,48,0.00,,,-99.99,,2013-01-08 07:42:00,
2013-01-08 00:52:00,18.0,3.0,30.04,East,90,3.0,5.0,50,0.00,,,-99.99,,2013-01-08 07:52:00,
2013-01-08 01:01:00,17.0,2.0,30.04,East,90,1.0,4.0,50,0.00,,,-99.99,,2013-01-08 08:01:00,
2013-01-08 01:12:00,17.0,2.0,30.04,East,90,1.0,4.0,50,0.00,,,-99.99,,2013-01-08 08:12:00,
2013-01-08 01:22:00,17.0,2.0,30.04,East,90,1.0,4.0,50,0.00,,,-99.99,,2013-01-08 08:22:00,
2013-01-08 01:32:00,18.0,5.0,30.04,East,90,1.0,3.0,56,0.00,,,-99.99,,2013-01-08 08:32:00,
2013-01-08 01:42:00,18.0,5.0,30.04,East,90,1.0,3.0,56,0.00,,,-99.99,,2013-01-08 08:42:00,
2013-01-08 01:52:00,18.0,5.0,30.04,East,90,1.0,3.0,56,0.00,,,-99.99,,2013-01-08 08:52:00,
2013-01-08 02:02:00,16.0,1.0,30.04,NE,45,3.0,6.0,50,0.00,,,-99.99,,2013-01-08 09:02:00,
2013-01-08 02:12:00,16.0,1.0,30.04,NE,45,3.0,6.0,50,0.00,,,-99.99,,2013-01-08 09:12:00,
2013-01-08 02:20:00,16.0,-1.0,30.04,North,360,2.0,10.0,47,0.00,,,-99.99,,2013-01-08 09:20:00,
2013-01-08 02:22:00,16.0,1.0,30.04,NE,45,3.0,6.0,50,0.00,,,-99.99,,2013-01-08 09:22:00,
2013-01-08 02:32:00,17.0,-1.0,30.05,East,90,2.0,4.0,44,0.00,,,-99.99,,2013-01-08 09:32:00,
2013-01-08 02:42:00,17.0,-1.0,30.05,East,90,2.0,4.0,44,0.00,,,-99.99,,2013-01-08 09:42:00,
2013-01-08 02:52:00,16.0,-1.0,30.04,North,360,2.0,10.0,47,0.00,,,-99.99,,2013-01-08 09:52:00,
2013-01-08 03:02:00,16.0,-1.0,30.04,North,360,2.0,10.0,47,0.00,,,-99.99,,2013-01-08 10:02:00,
2013-01-08 03:11:00,16.0,-1.0,30.04,North,360,2.0,10.0,47,0.00,,,-99.99,,2013-01-08 10:11:00,
2013-01-08 03:52:00,20.0,-1.0,30.03,North,360,4.0,8.0,38,0.00,,,-99.99,,2013-01-08 10:52:00,
2013-01-08 04:02:00,18.0,-2.0,30.04,West,270,5.0,8.0,40,0.00,,,-99.99,,2013-01-08 11:02:00,
2013-01-08 04:12:00,18.0,-2.0,30.04,West,270,5.0,8.0,40,0.00,,,-99.99,,2013-01-08 11:12:00,
2013-01-08 04:22:00,13.0,-4.0,30.05,NW,315,4.0,7.0,46,0.00,,,-99.99,,2013-01-08 11:22:00,
2013-01-08 04:32:00,13.0,-4.0,30.05,NW,315,3.0,7.0,46,0.00,,,-99.99,,2013-01-08 11:32:00,
2013-01-08 04:42:00,13.0,-4.0,30.05,NW,315,3.0,7.0,46,0.00,,,-99.99,,2013-01-08 11:42:00,
2013-01-08 04:53:00,13.0,-4.0,30.05,NW,315,3.0,7.0,46,0.00,,,-99.99,,2013-01-08 11:53:00,
2013-01-08 05:02:00,13.0,-4.0,30.05,NW,315,3.0,7.0,46,0.00,,,-99.99,,2013-01-08 12:02:00,
2013-01-08 05:22:00,27.0,-1.0,30.04,NE,45,3.0,7.0,29,0.00,,,-99.99,,2013-01-08 12:22:00,
2013-01-08 05:33:00,20.0,-1.0,30.04,NW,315,4.0,9.0,38,0.00,,,-99.99,,2013-01-08 12:33:00,
2013-01-08 05:43:00,20.0,-1.0,30.04,NW,315,4.0,9.0,38,0.00,,,-99.99,,2013-01-08 12:43:00,
2013-01-08 05:53:00,24.0,-1.0,30.04,North,360,2.0,7.0,33,0.00,,,-99.99,,2013-01-08 12:53:00,
2013-01-08 06:22:00,27.0,-2.0,30.05,West,270,6.0,11.0,27,0.00,,,-99.99,,2013-01-08 13:22:00,
2013-01-08 06:32:00,21.0,-4.0,30.06,NW,315,1.0,5.0,33,0.00,,,-99.99,,2013-01-08 13:32:00,
2013-01-08 06:42:00,21.0,-4.0,30.06,NW,315,1.0,5.0,33,0.00,,,-99.99,,2013-01-08 13:42:00,
2013-01-08 06:52:00,21.0,-2.0,30.06,North,360,0.0,4.0,35,0.00,,,-99.99,,2013-01-08 13:52:00,
2013-01-08 07:02:00,21.0,-2.0,30.06,North,360,0.0,4.0,35,0.00,,,-99.99,,2013-01-08 14:02:00,
2013-01-08 07:10:00,21.0,-3.0,30.07,SW,225,0.0,2.0,34,0.00,,,-99.99,,2013-01-08 14:10:00,
2013-01-08 07:12:00,21.0,-2.0,30.06,North,360,0.0,4.0,35,0.00,,,-99.99,,2013-01-08 14:12:00,
2013-01-08 07:22:00,21.0,-2.0,30.07,East,90,1.0,4.0,35,0.00,,,-99.99,,2013-01-08 14:22:00,
2013-01-08 07:33:00,21.0,-3.0,30.07,SW,225,0.0,2.0,34,0.00,,,-99.99,,2013-01-08 14:33:00,
2013-01-08 07:42:00,21.0,-3.0,30.07,SW,225,0.0,2.0,34,0.00,,,-99.99,,2013-01-08 14:42:00,
2013-01-08 07:52:00,21.0,-3.0,30.07,SW,225,0.0,2.0,34,0.00,,,-99.99,,2013-01-08 14:52:00,
2013-01-08 08:02:00,21.0,-3.0,30.07,SW,225,0.0,2.0,34,0.00,,,-99.99,,2013-01-08 15:02:00,
2013-01-08 08:23:00,26.0,-2.0,30.09,NW,315,4.0,7.0,29,0.00,,,-99.99,,2013-01-08 15:23:00,
2013-01-08 08:30:00,28.0,-1.0,30.11,SE,135,0.0,2.0,28,0.00,,,-99.99,,2013-01-08 15:30:00,
2013-01-08 08:33:00,26.0,-2.0,30.09,NW,315,4.0,7.0,29,0.00,,,-99.99,,2013-01-08 15:33:00,
2013-01-08 08:53:00,28.0,-1.0,30.11,SE,135,0.0,2.0,28,0.00,,,-99.99,,2013-01-08 15:53:00,
2013-01-08 09:02:00,28.0,-1.0,30.11,SE,135,0.0,2.0,28,0.00,,,-99.99,,2013-01-08 16:02:00,
2013-01-08 10:23:00,44.0,10.0,30.14,NW,315,2.0,6.0,24,0.00,,,-99.99,,2013-01-08 17:23:00,
2013-01-08 10:34:00,39.0,8.0,30.14,NW,315,3.0,6.0,27,0.00,,,-99.99,,2013-01-08 17:34:00,
2013-01-08 10:43:00,39.0,8.0,30.14,NW,315,3.0,6.0,27,0.00,,,-99.99,,2013-01-08 17:43:00,
2013-01-08 10:53:00,47.0,14.0,30.14,NW,315,4.0,12.0,26,0.00,,,-99.99,,2013-01-08 17:53:00,
2013-01-08 11:22:00,47.0,16.0,30.14,NE,45,5.0,11.0,28,0.00,,,-99.99,,2013-01-08 18:22:00,
2013-01-08 11:32:00,53.0,17.0,30.14,North,360,1.0,9.0,24,0.00,,,-99.99,,2013-01-08 18:32:00,
2013-01-08 11:52:00,51.0,15.0,30.13,East,90,5.0,16.0,23,0.00,,,-99.99,,2013-01-08 18:52:00,
2013-01-08 12:02:00,51.0,12.0,30.13,NNW,338,9.0,16.0,21,0.00,,,-99.99,,2013-01-08 19:02:00,
2013-01-08 12:32:00,48.0,18.0,30.13,East,90,2.0,5.0,30,0.00,,,-99.99,,2013-01-08 19:32:00,
2013-01-08 12:43:00,48.0,18.0,30.13,East,90,2.0,5.0,30,0.00,,,-99.99,,2013-01-08 19:43:00,
2013-01-08 12:53:00,47.0,17.0,30.12,North,360,5.0,9.0,30,0.00,,,-99.99,,2013-01-08 19:53:00,
2013-01-08 13:02:00,50.0,21.0,30.12,NW,315,4.0,9.0,32,0.00,,,-99.99,,2013-01-08 20:02:00,
2013-01-08 13:22:00,48.0,20.0,30.12,NW,315,4.0,9.0,32,0.00,,,-99.99,,2013-01-08 20:22:00,
2013-01-08 13:32:00,48.0,20.0,30.12,NW,315,4.0,9.0,32,0.00,,,-99.99,,2013-01-08 20:32:00,
2013-01-08 13:42:00,48.0,20.0,30.12,NW,315,4.0,9.0,32,0.00,,,-99.99,,2013-01-08 20:42:00,
2013-01-08 13:53:00,48.0,20.0,30.12,NW,315,4.0,9.0,32,0.00,,,-99.99,,2013-01-08 20:53:00,
2013-01-08 14:22:00,53.0,24.0,30.11,NW,315,2.0,4.0,32,0.00,,,-99.99,,2013-01-08 21:22:00,
2013-01-08 14:33:00,53.0,25.0,30.11,NW,315,2.0,4.0,34,0.00,,,-99.99,,2013-01-08 21:33:00,
2013-01-08 14:52:00,53.0,24.0,30.11,NW,315,3.0,6.0,32,0.00,,,-99.99,,2013-01-08 21:52:00,
2013-01-08 15:02:00,52.0,22.0,30.12,North,360,4.0,8.0,30,0.00,,,-99.99,,2013-01-08 22:02:00,
2013-01-08 15:12:00,52.0,22.0,30.12,North,360,4.0,8.0,30,0.00,,,-99.99,,2013-01-08 22:12:00,
2013-01-08 15:22:00,49.0,23.0,30.13,NW,315,6.0,11.0,36,0.00,,,-99.99,,2013-01-08 22:22:00,
2013-01-08 15:32:00,47.0,21.0,30.12,North,360,7.0,11.0,36,0.00,,,-99.99,,2013-01-08 22:32:00,
2013-01-08 15:42:00,47.0,21.0,30.12,North,360,7.0,11.0,36,0.00,,,-99.99,,2013-01-08 22:42:00,
2013-01-08 15:53:00,45.0,23.0,30.14,NE,45,7.0,12.0,42,0.00,,,-99.99,,2013-01-08 22:53:00,
2013-01-08 16:02:00,44.0,22.0,30.14,North,360,7.0,11.0,41,0.00,,,-99.99,,2013-01-08 23:02:00,
2013-01-08 16:12:00,44.0,22.0,30.14,North,360,7.0,11.0,41,0.00,,,-99.99,,2013-01-08 23:12:00,
2013-01-08 16:22:00,45.0,22.0,30.14,West,270,7.0,12.0,39,0.00,,,-99.99,,2013-01-08 23:22:00,
2013-01-08 16:32:00,45.0,23.0,30.15,North,360,7.0,12.0,42,0.00,,,-99.99,,2013-01-08 23:32:00,
2013-01-08 16:42:00,45.0,23.0,30.15,North,360,7.0,12.0,42,0.00,,,-99.99,,2013-01-08 23:42:00,
2013-01-08 16:52:00,44.0,22.0,30.15,NW,315,4.0,8.0,42,0.00,,,-99.99,,2013-01-08 23:52:00,
2013-01-08 17:02:00,45.0,23.0,30.16,NE,45,3.0,5.0,42,0.00,,,-99.99,,2013-01-09 00:02:00,
2013-01-08 17:12:00,45.0,23.0,30.16,NE,45,3.0,5.0,42,0.00,,,-99.99,,2013-01-09 00:12:00,
2013-01-08 17:22:00,47.0,23.0,30.15,NE,45,1.0,4.0,39,0.00,,,-99.99,,2013-01-09 00:22:00,
2013-01-08 17:32:00,47.0,23.0,30.15,NE,45,1.0,4.0,39,0.00,,,-99.99,,2013-01-09 00:32:00,
2013-01-08 17:42:00,47.0,23.0,30.15,NE,45,1.0,4.0,39,0.00,,,-99.99,,2013-01-09 00:42:00,
2013-01-08 17:52:00,45.0,20.0,30.15,North,360,6.0,10.0,37,0.00,,,-99.99,,2013-01-09 00:52:00,
2013-01-08 18:02:00,43.0,19.0,30.16,East,90,8.0,14.0,38,0.00,,,-99.99,,2013-01-09 01:02:00,
2013-01-08 18:12:00,43.0,19.0,30.16,East,90,8.0,14.0,38,0.00,,,-99.99,,2013-01-09 01:12:00,
2013-01-08 18:22:00,43.0,19.0,30.16,East,90,8.0,14.0,38,0.00,,,-99.99,,2013-01-09 01:22:00,
2013-01-08 18:32:00,38.0,18.0,30.16,North,360,3.0,4.0,44,0.00,,,-99.99,,2013-01-09 01:32:00,
2013-01-08 18:42:00,38.0,18.0,30.16,North,360,3.0,4.0,44,0.00,,,-99.99,,2013-01-09 01:42:00,
2013-01-08 18:52:00,38.0,18.0,30.16,North,360,3.0,4.0,44,0.00,,,-99.99,,2013-01-09 01:52:00,
2013-01-08 19:02:00,38.0,19.0,30.18,North,360,8.0,14.0,46,0.00,,,-99.99,,2013-01-09 02:02:00,
2013-01-08 19:11:00,38.0,19.0,30.18,North,360,8.0,14.0,46,0.00,,,-99.99,,2013-01-09 02:11:00,
2013-01-08 19:22:00,35.0,18.0,30.19,NE,45,2.0,6.0,50,0.00,,,-99.99,,2013-01-09 02:22:00,
2013-01-08 19:32:00,35.0,18.0,30.18,NE,45,2.0,12.0,50,0.00,,,-99.99,,2013-01-09 02:32:00,
2013-01-08 19:42:00,35.0,18.0,30.18,NE,45,2.0,12.0,50,0.00,,,-99.99,,2013-01-09 02:42:00,
2013-01-08 19:52:00,37.0,19.0,30.19,West,270,4.0,10.0,47,0.00,,,-99.99,,2013-01-09 02:52:00,
2013-01-08 20:02:00,36.0,18.0,30.20,North,360,5.0,9.0,48,0.00,,,-99.99,,2013-01-09 03:02:00,
2013-01-08 20:12:00,36.0,18.0,30.20,North,360,5.0,9.0,48,0.00,,,-99.99,,2013-01-09 03:12:00,
2013-01-08 20:22:00,36.0,18.0,30.20,WNW,292,3.0,10.0,48,0.00,,,-99.99,,2013-01-09 03:22:00,
2013-01-08 20:32:00,36.0,18.0,30.20,WNW,292,3.0,10.0,48,0.00,,,-99.99,,2013-01-09 03:32:00,
2013-01-08 20:42:00,36.0,18.0,30.20,WNW,292,3.0,10.0,48,0.00,,,-99.99,,2013-01-09 03:42:00,
2013-01-08 20:52:00,36.0,18.0,30.20,WNW,292,3.0,10.0,48,0.00,,,-99.99,,2013-01-09 03:52:00,
2013-01-08 21:01:00,35.0,18.0,30.19,North,360,9.0,14.0,50,0.00,,,-99.99,,2013-01-09 04:01:00,
2013-01-08 21:12:00,35.0,18.0,30.19,North,360,9.0,14.0,50,0.00,,,-99.99,,2013-01-09 04:12:00,
2013-01-08 21:22:00,35.0,18.0,30.19,West,270,7.0,13.0,49,0.00,,,-99.99,,2013-01-09 04:22:00,
2013-01-08 21:32:00,35.0,18.0,30.19,West,270,7.0,13.0,49,0.00,,,-99.99,,2013-01-09 04:32:00,
2013-01-08 21:43:00,32.0,17.0,30.20,North,360,2.0,6.0,54,0.00,,,-99.99,,2013-01-09 04:43:00,
2013-01-08 21:52:00,32.0,17.0,30.20,North,360,2.0,6.0,54,0.00,,,-99.99,,2013-01-09 04:52:00,
2013-01-08 22:03:00,32.0,17.0,30.20,North,360,2.0,6.0,54,0.00,,,-99.99,,2013-01-09 05:03:00,
2013-01-08 22:12:00,32.0,17.0,30.20,North,360,2.0,6.0,54,0.00,,,-99.99,,2013-01-09 05:12:00,
2013-01-08 22:22:00,31.0,18.0,30.20,North,360,1.0,4.0,57,0.00,,,-99.99,,2013-01-09 05:22:00,
2013-01-08 22:33:00,32.0,19.0,30.20,NNW,338,6.0,11.0,57,0.00,,,-99.99,,2013-01-09 05:33:00,
2013-01-08 22:42:00,32.0,19.0,30.20,NNW,338,6.0,11.0,57,0.00,,,-99.99,,2013-01-09 05:42:00,
2013-01-08 22:52:00,32.0,19.0,30.20,NNW,338,6.0,11.0,57,0.00,,,-99.99,,2013-01-09 05:52:00,
2013-01-08 23:02:00,33.0,18.0,30.22,North,360,6.0,10.0,54,0.00,,,-99.99,,2013-01-09 06:02:00,
2013-01-08 23:12:00,33.0,18.0,30.22,North,360,6.0,10.0,54,0.00,,,-99.99,,2013-01-09 06:12:00,
2013-01-08 23:22:00,31.0,17.0,30.22,NW,315,4.0,8.0,56,0.00,,,-99.99,,2013-01-09 06:22:00,
2013-01-08 23:32:00,34.0,19.0,30.22,East,90,2.0,5.0,53,0.00,,,-99.99,,2013-01-09 06:32:00,
2013-01-08 23:42:00,34.0,19.0,30.22,East,90,2.0,5.0,53,0.00,,,-99.99,,2013-01-09 06:42:00,
2013-01-08 23:52:00,27.0,17.0,30.22,South,180,3.0,8.0,66,0.00,,,-99.99,,2013-01-09 06:52:00,